Flag for Spain Weather past 2 weeks in Valencia, Spain

Now
72 °F

Clear.


Feels Like: 74 °F
Forecast: 69 / 87 °F
Wind: 2 mph from North

Location: Valencia / Aeropuerto

Current Time: Jul 23, 2014 at 5:47:15 AM

Latest Report: Jul 23, 2014 at 5:00 AM


Visibility: 10 mi

Pressure: 29.89 "Hg

Humidity: 73%

Dew point: 63 °F

Location of ValenciaLocation

Historic Weather in Valencia — Graph

°F

Valencia temperature yesterday

Maximum temperature yesterday: 84 °F (at 11:30 AM)
Minimum temperature yesterday: 72 °F (at 5:00 AM)
Average temperature yesterday: 79 °F

Past Weeks' High & Low Weather Summary

 TemperatureHumidityPressure
High93 °F (Jul 20, 5:00 PM)94% (Jul 19, 6:00 AM)30.12 "Hg (Jul 19, 6:00 AM)
Low66 °F (Jul 10, 7:00 AM)15% (Jul 20, 7:00 PM)29.77 "Hg (Jul 19, 5:30 PM)
Average78 °F61%30.01 "Hg
* Reported Jul 8 4:00 AM — Jul 23 4:30 AM, Valencia, Weather by CustomWeather, © 2014

Note: Actual official high and low records may vary slightly from our data, if they occured in-between our weather recording intervals... More about our weather records

Advertising

Valencia weather history for previous 24 hours

 ConditionsComfort  
Time TempWeatherWind HumidityBarometerVisibility
4:30 AM
Jul 23
70 °FClear.2 mph78%29.89 "Hg10 mi
4:00 AM72 °FClear.3 mph78%29.89 "Hg10 mi
3:30 AM72 °FClear.2 mph78%29.92 "Hg10 mi
3:00 AM72 °FClear.No wind83%29.92 "Hg10 mi
2:30 AM73 °FClear.3 mph78%29.92 "Hg10 mi
2:00 AM73 °FClear.2 mph78%29.95 "Hg10 mi
1:00 AM75 °FClear.2 mph74%29.95 "Hg10 mi
7:00 PM
Jul 22
81 °FPassing clouds.10 mph66%29.92 "HgN/A
6:30 PM82 °FPassing clouds.10 mph58%29.92 "HgN/A
6:00 PM82 °FPassing clouds.12 mph58%29.92 "HgN/A
5:30 PM82 °FPassing clouds.10 mph58%29.92 "HgN/A
5:00 PM82 °FPassing clouds.13 mph58%29.95 "HgN/A
4:30 PM84 °FPassing clouds.13 mph51%29.95 "HgN/A
4:00 PM84 °FPassing clouds.13 mph51%29.95 "HgN/A
3:30 PM84 °FPassing clouds.13 mph51%29.95 "HgN/A
3:00 PM84 °FPassing clouds.14 mph48%29.95 "HgN/A
2:30 PM84 °FPassing clouds.12 mph45%29.98 "HgN/A
2:00 PM84 °FPassing clouds.13 mph40%29.98 "HgN/A
1:30 PM84 °FPassing clouds.10 mph40%29.98 "HgN/A
1:00 PM84 °FPassing clouds.10 mph40%29.98 "HgN/A
12:30 PM84 °FPassing clouds.10 mph43%30.01 "HgN/A
12:00 PM84 °FPassing clouds.8 mph40%30.01 "HgN/A
11:30 AM84 °FPassing clouds.3 mph40%30.01 "HgN/A
11:00 AM82 °FSunny.2 mph37%30.01 "Hg10 mi
10:30 AM82 °FSunny.No wind37%30.04 "Hg10 mi
10:00 AM81 °FSunny.No wind42%30.04 "Hg10 mi
9:30 AM79 °FSunny.2 mph42%30.04 "Hg10 mi
9:00 AM77 °FSunny.6 mph44%30.04 "Hg10 mi
8:30 AM73 °FSunny.2 mph53%30.04 "Hg10 mi
8:00 AM72 °FSunny.3 mph57%30.04 "Hg10 mi
7:30 AM72 °FPassing clouds.5 mph53%30.04 "HgN/A
7:00 AM73 °FClear.5 mph50%30.01 "Hg10 mi
6:30 AM73 °FClear.No wind50%30.01 "Hg10 mi
6:00 AM72 °FClear.1 mph53%30.01 "Hg10 mi
5:30 AM72 °FClear.1 mph53%30.01 "Hg10 mi
5:00 AM72 °FPassing clouds.6 mph57%30.01 "HgN/A
Weather by CustomWeather, © 2014

See weather overviewHow to use our weather pages